Temperature
25 26 26 27 27 28 28 28 28 28 29 28 28 29 29 28 27 27 27 26 25 24 23 22 21 20 20 20 20 19 19 19 19 18 18 17 17 17 17 17 17 17 17 16
25 26 27 27 27 27 27 27 28 28 28 28 28 28 29 28 28 27 26 26 25 24 23 21 20 20 20 20 20 19 19 19 18 18 18 18 17 17 16 16 16 16 16 16
26 27 27 26 26 26 27 27 28 27 28 28 27 28 29 28 27 26 25 25 24 24 23 21 20 20 20 19 20 19 19 18 18 18 18 17 17 16 16 16 16 16 16 16
26 27 26 26 26 26 26 28 27 27 27 28 28 27 28 28 28 27 26 25 24 24 23 22 21 20 19 19 19 19 19 19 18 18 17 17 17 16 16 16 16 16 16 16
26 26 26 26 26 26 27 28 27 27 27 27 27 27 28 28 28 28 27 25 24 24 23 22 21 20 19 19 18 18 18 18 18 18 17 17 16 16 16 16 16 16 16 16
26 26 26 26 27 27 27 27 27 27 27 26 27 27 27 29 28 28 27 25 24 23 22 21 21 20 19 19 18 18 18 18 18 17 17 17 16 16 16 16 16 16 16 16
25 25 26 26 26 26 26 26 25 25 25 26 27 26 27 28 28 27 26 25 23 22 22 21 20 20 19 19 18 18 18 18 17 17 17 17 16 16 16 16 16 16 16 16
24 25 25 26 26 26 26 26 25 25 26 27 26 26 27 27 26 25 25 24 23 22 21 21 20 19 19 19 18 18 17 17 17 17 17 17 16 16 16 16 15 15 15 15
25 25 26 26 26 26 26 26 27 27 26 26 27 27 27 26 26 25 24 23 22 22 21 20 20 19 19 18 18 17 17 17 17 17 17 17 16 16 15 15 15 15 15 15
25 24 25 26 26 26 27 27 26 26 24 25 26 26 27 26 26 25 24 23 22 21 20 20 19 19 18 18 17 17 17 17 17 16 16 16 16 16 15 15 15 15 15 15
24 23 24 25 24 25 25 25 25 26 26 25 25 26 27 26 26 25 24 23 22 21 20 19 19 18 18 17 17 17 16 16 16 16 16 16 16 16 15 15 15 15 15 15
23 23 23 24 25 26 25 25 25 24 24 25 25 26 26 26 25 24 24 22 21 20 19 19 18 18 17 17 17 17 16 16 16 16 16 16 15 15 15 15 15 15 15 15
22 22 22 23 24 24 24 25 26 25 25 25 25 25 25 25 24 23 22 21 20 19 19 18 18 17 17 17 17 16 16 16 16 15 15 15 15 15 15 15 15 15 15 14
22 22 22 23 23 24 24 24 25 25 25 25 25 26 25 24 24 22 21 20 20 19 18 18 17 17 17 16 16 16 16 16 16 15 15 15 15 15 15 15 15 14 14 14
21 21 22 23 23 24 24 24 24 24 25 25 25 25 25 24 24 22 21 20 19 18 17 17 17 16 16 16 16 16 16 15 15 15 15 15 15 15 15 14 14 14 14 14
20 21 21 22 23 23 23 24 24 24 24 25 25 24 24 23 22 21 20 19 19 18 17 17 16 16 16 16 15 15 15 15 15 15 15 14 14 14 14 14 14 14 14 14
20 20 20 21 22 22 22 23 24 24 24 24 24 24 23 23 22 21 20 19 19 18 17 17 16 16 16 15 15 15 15 15 15 15 14 14 14 14 14 14 14 14 14 14
19 19 20 21 21 20 22 24 24 24 23 24 23 23 23 22 20 19 19 18 18 18 17 16 16 16 15 15 15 15 15 15 15 14 14 14 14 14 14 14 14 14 14 14
19 18 19 20 20 21 22 22 23 22 22 23 22 22 21 20 20 19 18 17 17 17 16 16 16 16 15 15 15 14 14 14 14 14 14 14 14 14 14 14 14 14 14 13
18 18 19 19 19 20 21 22 21 22 21 21 21 21 20 20 21 20 17 17 17 16 16 16 15 15 15 14 14 14 14 14 14 14 14 14 14 14 14 14 14 14 14 13
18 18 18 19 19 21 21 20 20 20 20 20 19 19 19 20 19 18 17 16 16 15 15 15 15 15 14 14 14 14 14 14 14 14 14 13 13 13 13 13 13 14 13 13
18 18 18 19 19 19 19 20 20 19 18 18 18 18 17 17 16 16 16 16 15 15 15 15 14 14 14 14 13 13 13 13 13 13 13 13 13 13 13 13 13 13 13 13
18 18 18 18 18 17 17 17 16 16 17 17 17 16 16 16 16 16 15 15 15 15 14 14 14 14 14 13 13 13 13 13 13 13 13 13 13 13 13 13 13 13 13 13
17 16 17 17 17 16 16 16 15 15 16 16 16 15 15 15 15 15 15 14 14 14 14 14 14 14 13 13 13 13 13 13 13 13 13 13 13 13 13 13 13 13 13 13
15 16 16 16 16 16 15 15 15 15 15 15 15 15 15 15 15 14 14 14 14 13 13 13 13 13 13 13 13 13 13 13 13 12 12 13 13 13 13 13 13 13 13 13
15 15 15 16 15 15 15 15 14 14 14 14 14 14 14 14 14 14 14 13 13 13 13 13 13 13 13 13 12 12 12 13 12 12 12 13 13 13 13 13 12 12 12 12
Wind_Speed
11 12 14 14 14 11 9 11 11 9 6 9 11 10 8 7 9 10 10 10 10 10 9 9 9 8 8 8 9 8 8 7 6 5 5 4 3 3 3 2 2 3 3 3
11 15 14 11 11 11 11 12 11 8 6 8 10 11 9 8 9 9 9 9 10 10 9 9 8 9 9 9 9 8 8 7 7 5 4 3 3 3 2 2 2 2 3 3
16 8 10 12 12 13 14 13 11 8 6 9 9 12 10 8 8 8 9 9 9 10 10 10 9 9 8 8 8 7 7 7 7 6 5 4 3 3 3 2 2 2 3 3
14 10 9 13 14 14 13 11 10 10 10 9 9 10 9 8 8 9 10 9 10 10 10 10 10 9 9 8 8 8 8 7 7 6 5 6 4 4 3 3 2 2 3 3
11 11 12 14 14 13 11 8 10 11 12 11 10 10 9 8 9 9 9 9 9 9 9 9 10 9 9 9 8 8 8 7 7 7 6 6 5 4 3 3 3 3 2 3
10 9 10 12 11 11 8 8 9 10 11 13 12 11 9 8 8 7 6 6 7 7 7 8 9 9 8 9 8 8 8 7 7 7 7 6 5 4 4 3 3 3 2 3
11 12 11 10 11 12 12 10 8 9 10 11 9 10 8 4 4 4 4 5 6 6 7 8 9 10 9 10 9 9 9 8 7 7 6 6 5 5 4 4 3 3 2 2
11 12 13 12 13 12 15 15 10 8 10 8 8 9 6 3 2 2 3 4 5 6 6 8 9 9 9 10 9 9 9 8 8 7 6 5 5 4 3 3 3 3 2 2
9 9 10 12 11 12 14 15 13 11 10 10 8 7 6 5 5 4 4 5 6 6 6 7 8 9 9 9 9 9 8 8 7 7 6 5 5 3 3 3 3 2 2 2
8 8 9 10 10 12 12 12 10 11 10 11 10 10 7 7 7 5 5 6 6 6 7 7 7 7 7 8 8 8 7 7 7 6 6 5 5 4 3 3 3 2 2 2
9 9 10 11 14 14 12 14 12 12 11 10 10 6 2 3 4 5 6 6 6 7 7 7 7 7 7 8 8 8 8 7 7 6 6 5 5 4 4 4 4 3 3 3
9 8 10 13 10 10 13 15 14 12 11 12 11 4 4 3 3 4 5 6 7 7 7 7 7 7 7 7 8 8 8 7 7 7 6 5 5 4 4 4 4 3 3 3
7 7 10 11 11 11 13 14 15 14 12 12 13 6 5 4 3 3 5 6 7 7 7 7 7 6 6 7 7 7 7 7 7 7 6 6 5 5 4 4 4 3 3 4
7 9 12 12 9 10 12 13 14 15 14 14 14 10 5 4 4 4 5 6 7 7 7 7 6 6 6 6 7 7 7 7 7 7 7 6 5 5 5 4 4 4 4 4
7 10 12 13 11 11 12 14 15 17 16 15 12 11 7 4 3 4 6 7 7 8 7 7 6 6 6 6 6 7 7 7 7 7 6 6 5 5 5 5 4 4 4 4
7 9 10 13 12 13 14 15 16 17 16 16 13 11 5 3 2 4 6 8 8 8 8 7 6 6 6 6 6 7 7 7 7 7 6 6 6 6 5 4 4 4 4 4
7 8 10 11 11 12 16 16 16 16 15 14 14 10 6 5 5 5 6 8 9 9 8 8 7 7 6 6 6 6 6 6 7 7 7 7 6 6 5 5 5 4 4 4
8 9 9 9 9 14 9 7 10 13 12 12 10 7 6 5 4 4 5 7 8 8 8 7 7 7 6 6 6 5 6 6 6 6 7 7 6 6 6 5 5 5 4 4
11 10 8 9 12 11 7 6 8 9 10 8 8 7 4 3 4 3 3 4 6 7 7 7 6 6 6 6 6 6 6 7 7 7 6 6 6 6 6 5 5 5 4 4
10 10 10 10 12 11 5 3 4 7 9 5 6 6 6 5 7 3 3 4 4 5 6 6 6 6 6 6 6 7 6 7 7 7 6 6 6 6 5 5 4 4 4 4
10 10 13 13 12 8 1 1 5 9 3 3 4 4 4 4 2 2 3 3 4 4 5 6 6 6 6 6 7 6 6 6 6 6 6 6 6 5 5 4 4 4 4 4
8 9 11 11 11 7 1 3 4 1 2 1 3 3 3 2 2 2 2 3 4 4 5 6 6 6 6 6 6 6 5 5 5 6 6 6 6 5 5 5 4 5 5 5
5 5 4 4 3 2 1 1 1 1 1 0 1 2 3 3 3 2 2 3 4 5 5 5 6 6 6 6 6 6 5 5 5 6 6 6 5 5 4 5 6 6 5 4
3 2 4 4 3 2 1 1 1 1 1 1 1 2 3 3 3 3 3 3 4 5 5 5 6 6 6 5 5 5 5 5 5 5 5 5 5 5 4 4 4 4 4 4
2 2 4 6 4 3 2 1 1 1 1 0 0 1 1 2 2 3 3 3 4 4 5 5 5 5 5 5 5 5 5 5 5 6 5 5 4 4 4 3 2 3 2 2
2 3 4 3 1 2 1 1 2 1 1 1 1 1 1 1 2 2 2 3 3 5 5 5 5 5 5 5 5 4 5 5 5 5 5 4 4 3 3 3 3 3 1 3
Wind_Direction
194 213 216 214 221 244 240 237 236 234 218 235 240 245 241 222 223 224 217 212 207 203 192 186 184 183 182 183 184 184 185 180 183 188 192 193 192 194 198 192 186 202 207 212
201 220 223 221 221 232 234 235 236 230 216 240 247 249 243 231 227 224 220 214 208 201 186 180 182 183 185 184 184 183 186 182 186 182 186 183 181 199 197 196 182 204 206 213
215 217 207 213 215 223 230 233 236 238 228 235 250 248 233 221 220 222 226 223 213 205 193 185 184 184 184 184 185 184 181 179 182 176 172 166 171 191 185 186 189 196 203 207
224 215 206 215 218 221 229 231 241 240 240 237 234 255 227 217 217 215 218 217 214 207 199 192 187 186 185 181 175 175 175 176 176 177 180 180 187 193 197 199 195 190 192 199
215 210 212 220 221 222 235 233 235 238 243 253 236 253 241 206 224 217 212 214 212 207 200 195 190 185 180 175 168 168 170 172 173 176 179 188 199 195 191 193 185 193 182 184
228 215 221 225 221 217 218 215 223 233 239 243 239 246 247 215 226 223 203 201 202 199 195 191 183 176 173 170 166 166 167 169 172 176 179 189 194 192 189 189 185 195 184 177
216 211 211 215 210 204 210 214 217 222 227 239 222 236 246 234 222 226 207 192 188 189 188 182 178 175 172 171 169 168 168 165 170 177 180 184 188 189 192 199 194 204 194 177
211 208 200 205 213 209 213 221 229 237 237 236 206 232 235 189 180 206 199 181 176 179 180 180 176 174 174 171 170 171 169 167 170 172 172 176 184 191 187 191 202 194 203 188
219 215 189 203 214 219 213 223 238 252 256 253 226 226 215 186 188 187 181 171 170 171 172 172 170 172 172 171 171 173 169 168 168 166 164 168 177 181 179 183 194 185 177 173
236 230 205 200 210 218 226 223 230 238 241 243 237 232 226 193 200 192 183 176 167 162 165 163 163 166 166 166 165 168 167 164 160 165 171 166 171 172 176 180 170 172 164 154
232 229 211 202 211 211 210 218 225 237 242 247 246 234 181 200 200 197 185 172 163 160 160 158 158 160 162 164 164 166 163 161 162 163 168 165 168 167 170 169 164 166 165 163
218 232 230 220 219 231 225 225 222 228 233 242 256 242 102 141 170 183 171 163 158 154 154 153 155 156 161 164 164 162 163 163 161 160 160 159 161 163 163 155 155 158 164 164
204 222 225 216 208 211 224 228 228 232 241 241 244 235 126 139 149 156 160 159 159 157 153 151 155 159 163 164 162 159 161 159 160 158 157 155 155 156 157 151 153 161 162 156
224 229 234 234 231 218 223 227 228 231 235 238 240 246 198 199 194 178 175 170 166 160 158 157 158 160 162 162 159 158 159 161 164 161 160 159 159 158 161 160 161 165 160 154
223 234 239 250 251 242 236 234 230 231 240 247 248 250 241 236 233 198 182 175 169 166 168 166 162 160 163 160 158 157 158 164 168 166 165 165 163 159 160 162 164 166 164 156
225 240 239 243 240 239 240 238 234 234 238 244 252 252 247 246 226 192 185 182 180 179 177 174 168 163 166 164 162 159 160 164 166 166 168 163 158 153 155 159 157 161 163 154
224 230 236 239 232 238 237 235 233 232 233 238 244 249 237 227 226 218 202 193 188 184 182 180 177 171 171 170 164 164 164 165 166 166 165 160 159 157 159 158 160 165 161 151
235 238 237 239 224 231 235 231 236 234 232 239 245 245 245 244 233 216 206 199 191 184 182 181 180 175 173 171 166 163 165 170 171 171 169 166 165 164 162 161 161 166 164 156
223 229 235 234 230 236 225 220 229 230 232 234 233 230 228 207 189 180 177 184 189 182 178 176 176 172 169 172 170 169 172 178 181 180 176 173 172 169 169 167 168 169 164 162
206 223 235 236 239 239 219 186 239 235 229 201 213 212 206 203 218 192 156 164 164 159 163 166 167 165 168 173 174 175 177 180 184 184 181 175 176 176 178 174 175 167 163 164
200 215 227 236 242 241 224 187 210 219 219 164 191 198 204 213 270 109 132 151 155 154 156 158 161 163 166 170 174 176 175 180 184 181 179 174 175 177 176 173 174 168 169 165
214 218 220 226 235 232 124 196 217 296 22 157 177 184 181 164 151 151 142 150 159 157 153 154 157 156 159 168 173 172 172 174 175 173 174 170 174 180 168 168 173 173 173 172
226 243 244 236 238 20 318 249 307 296 249 193 181 178 174 178 185 180 170 164 163 160 156 158 156 154 157 168 172 171 171 171 169 168 170 169 172 176 169 173 178 180 182 188
217 258 249 242 237 259 257 218 236 253 216 216 189 193 185 188 182 169 161 157 158 159 158 160 160 159 160 168 174 173 170 171 170 170 170 174 175 176 176 189 192 195 193 195
270 238 237 236 235 235 208 199 214 58 61 124 116 165 173 167 172 165 158 159 161 160 159 161 163 163 164 168 170 166 170 174 177 177 178 182 185 181 182 185 196 208 199 219
269 260 256 254 253 260 286 41 17 33 63 77 98 73 51 104 149 148 148 153 158 160 159 161 163 162 165 169 168 166 172 176 184 186 186 187 189 183 188 180 165 74 82 101
Height
1494 1493 1489 1486 1486 1485 1485 1487 1488 1486 1485 1488 1487 1485 1484 1488 1490 1491 1493 1496 1499 1501 1504 1506 1508 1510 1511 1513 1514 1516 1517 1518 1519 1521 1522 1523 1524 1524 1525 1525 1526 1526 1527 1528
1491 1488 1483 1484 1485 1487 1487 1488 1486 1484 1485 1488 1485 1484 1481 1484 1486 1489 1491 1493 1496 1499 1502 1504 1505 1507 1509 1510 1512 1514 1515 1516 1518 1519 1520 1521 1522 1522 1523 1524 1524 1525 1526 1526
1483 1479 1481 1485 1487 1489 1486 1486 1485 1486 1485 1485 1486 1484 1479 1480 1484 1487 1489 1491 1493 1495 1498 1501 1503 1505 1507 1508 1510 1512 1513 1514 1516 1517 1518 1519 1520 1521 1522 1522 1523 1523 1524 1525
1479 1478 1482 1484 1484 1485 1486 1480 1483 1485 1488 1483 1484 1488 1476 1475 1479 1482 1485 1487 1490 1492 1495 1498 1500 1502 1504 1506 1508 1510 1511 1512 1514 1515 1517 1518 1518 1519 1520 1521 1522 1522 1523 1524
1476 1476 1479 1481 1479 1481 1479 1479 1481 1482 1484 1484 1482 1487 1475 1472 1476 1476 1480 1483 1486 1489 1492 1495 1498 1500 1502 1504 1506 1508 1509 1511 1512 1513 1515 1516 1517 1518 1519 1520 1520 1521 1522 1523
1472 1475 1476 1475 1476 1478 1479 1481 1481 1480 1480 1491 1482 1485 1479 1467 1470 1471 1476 1480 1484 1487 1490 1493 1496 1498 1500 1502 1504 1506 1507 1509 1510 1511 1513 1514 1515 1517 1518 1518 1519 1520 1521 1521
1474 1472 1473 1474 1476 1478 1478 1483 1490 1491 1491 1486 1474 1481 1475 1465 1467 1471 1474 1478 1482 1485 1488 1490 1493 1496 1498 1500 1502 1504 1505 1507 1508 1510 1511 1513 1514 1515 1516 1517 1518 1519 1520 1520
1473 1473 1469 1471 1472 1474 1475 1476 1485 1492 1487 1477 1475 1479 1468 1465 1470 1473 1475 1478 1481 1484 1486 1488 1491 1494 1496 1499 1500 1502 1504 1505 1507 1508 1510 1511 1513 1514 1515 1515 1516 1517 1518 1519
1467 1468 1464 1467 1468 1468 1472 1470 1465 1473 1474 1478 1472 1469 1465 1467 1470 1472 1475 1477 1480 1482 1485 1487 1490 1492 1495 1497 1499 1500 1502 1504 1505 1507 1508 1510 1511 1512 1513 1514 1514 1515 1516 1517
1464 1470 1464 1465 1467 1467 1465 1465 1471 1474 1485 1485 1475 1471 1466 1464 1467 1469 1473 1475 1478 1481 1484 1486 1489 1491 1493 1495 1497 1499 1501 1502 1504 1506 1508 1509 1510 1511 1512 1512 1513 1514 1514 1515
1464 1470 1467 1465 1467 1465 1468 1468 1469 1469 1468 1479 1480 1470 1455 1460 1463 1467 1470 1474 1477 1480 1483 1485 1487 1489 1491 1493 1495 1497 1499 1501 1503 1504 1506 1508 1509 1509 1510 1511 1512 1512 1513 1514
1466 1467 1466 1462 1459 1460 1462 1462 1466 1475 1475 1471 1471 1468 1457 1460 1464 1467 1470 1474 1477 1480 1483 1485 1487 1489 1491 1493 1495 1496 1498 1500 1502 1503 1505 1506 1507 1508 1509 1510 1511 1511 1512 1513
1466 1469 1473 1468 1466 1463 1461 1459 1459 1462 1466 1469 1471 1467 1460 1462 1465 1468 1471 1474 1477 1480 1482 1484 1486 1488 1490 1492 1494 1496 1498 1499 1501 1503 1504 1505 1506 1507 1508 1509 1510 1511 1511 1512
1467 1465 1466 1467 1461 1458 1461 1460 1459 1461 1464 1464 1463 1459 1459 1461 1464 1468 1471 1474 1476 1479 1481 1483 1485 1487 1489 1491 1492 1494 1497 1499 1500 1502 1503 1504 1505 1506 1507 1508 1509 1510 1511 1512
1465 1464 1461 1457 1455 1456 1458 1459 1458 1459 1457 1459 1456 1455 1455 1459 1463 1467 1470 1473 1475 1478 1481 1482 1484 1486 1488 1490 1492 1494 1495 1497 1499 1501 1502 1503 1504 1505 1506 1508 1509 1510 1511 1512
1465 1464 1461 1461 1456 1456 1457 1454 1454 1455 1454 1454 1455 1456 1456 1460 1464 1467 1469 1471 1473 1476 1479 1481 1483 1485 1487 1489 1491 1493 1494 1496 1498 1500 1501 1502 1503 1504 1505 1507 1508 1509 1510 1511
1463 1464 1464 1460 1455 1457 1458 1450 1449 1450 1450 1452 1455 1455 1456 1460 1463 1465 1468 1470 1472 1474 1477 1480 1482 1484 1486 1488 1489 1491 1493 1495 1497 1499 1500 1501 1502 1503 1504 1506 1507 1508 1509 1510
1465 1464 1460 1458 1460 1468 1450 1444 1444 1447 1448 1450 1451 1454 1457 1459 1462 1465 1467 1469 1470 1473 1476 1478 1481 1483 1485 1486 1488 1490 1492 1494 1496 1497 1499 1500 1501 1503 1504 1505 1506 1507 1508 1508
1463 1464 1461 1458 1458 1453 1447 1445 1446 1448 1450 1450 1452 1455 1458 1460 1461 1463 1466 1467 1469 1472 1474 1476 1479 1481 1483 1485 1487 1488 1490 1492 1494 1496 1497 1499 1500 1502 1503 1504 1505 1506 1506 1507
1461 1462 1461 1457 1459 1457 1447 1445 1448 1450 1452 1451 1452 1454 1457 1458 1457 1460 1465 1466 1468 1471 1473 1475 1477 1480 1482 1484 1485 1487 1489 1490 1492 1494 1496 1497 1498 1500 1501 1502 1503 1504 1505 1506
1458 1459 1458 1456 1455 1447 1445 1447 1449 1455 1452 1452 1453 1455 1457 1458 1459 1462 1464 1466 1467 1469 1471 1473 1476 1478 1480 1482 1484 1485 1487 1489 1490 1492 1494 1495 1497 1498 1499 1500 1501 1502 1503 1505
1452 1452 1453 1452 1454 1452 1448 1448 1450 1451 1453 1453 1455 1456 1458 1460 1461 1462 1463 1465 1466 1468 1470 1472 1474 1476 1479 1481 1482 1484 1486 1487 1489 1491 1492 1494 1495 1497 1498 1498 1500 1501 1502 1503
1451 1451 1448 1450 1452 1453 1452 1452 1454 1454 1455 1455 1456 1457 1458 1459 1461 1462 1462 1463 1465 1466 1468 1471 1473 1475 1477 1479 1481 1483 1484 1486 1488 1489 1491 1493 1494 1495 1496 1497 1498 1500 1501 1502
1452 1454 1453 1453 1452 1453 1454 1454 1455 1455 1455 1456 1456 1457 1457 1458 1459 1460 1461 1462 1464 1465 1467 1469 1471 1473 1475 1478 1480 1481 1483 1485 1487 1488 1489 1491 1493 1494 1495 1496 1497 1498 1500 1501
1454 1454 1453 1453 1453 1453 1453 1454 1455 1455 1455 1455 1456 1456 1457 1457 1458 1459 1460 1461 1462 1464 1466 1468 1470 1472 1474 1476 1478 1480 1481 1483 1485 1487 1488 1490 1491 1492 1493 1494 1495 1497 1497 1498
1456 1455 1454 1452 1454 1454 1454 1455 1455 1455 1455 1455 1455 1455 1456 1457 1457 1458 1459 1460 1461 1463 1465 1467 1469 1471 1473 1475 1477 1478 1480 1482 1483 1485 1486 1488 1489 1491 1492 1493 1493 1494 1495 1495